Simultaneous Nadir Overpasses (SNOs) Predictions

Prediction of SNOs between GOES-15 and METOP-A Satellite Orbit:

Table of predicted SNOs for the next 14.0 days since TLE Epoch: 8/8/2014
Index Date Time (GOES-15) GOES-15 Lat,Lon METOP-A Lat,Lon Distance(km) Time Diff (sec)
1 08/09/2014 06:24:10 -0.04,-135.49 0.31,-133.92 179.38 80
2 08/10/2014 18:45:42 0.07,-135.49 0.73,-138.48 339.70 80
3 08/11/2014 18:22:23 0.04,-135.49 -0.40,-133.49 228.10 80
4 08/13/2014 06:44:04 -0.07,-135.47 -0.68,-138.07 296.74 80
5 08/14/2014 06:20:45 -0.05,-135.46 0.46,-133.08 271.00 80
6 08/15/2014 18:42:17 0.08,-135.46 0.58,-137.64 248.69 80
7 08/16/2014 18:18:59 0.06,-135.45 -0.55,-132.65 318.68 80
8 08/18/2014 06:40:39 -0.10,-135.42 -0.51,-137.23 206.97 80
9 08/19/2014 06:17:21 -0.07,-135.41 0.63,-132.24 360.19 80
10 08/20/2014 18:38:53 0.11,-135.39 0.41,-136.80 160.34 80
11 08/21/2014 18:15:35 0.09,-135.37 -0.73,-131.81 406.45 80




NCC Satellite Simultaneous Nadir Overpasses (SNOs) Prediction Service
